EXPLORER 38 DEB, 28608

Orbit data source: Space-Track

EXPLORER 38 DEB, 28608 is space debris originally from a launch on Thu, 04 Jul 1968 UTC launched from the Air Force Western Test Range (AFWTR). Debris objects in space refer to the collection of defunct objects orbiting the Earth. Examples of debris include non-operational satellites, rocket bodies, and fragments generated from explosions, collisions, or faulty payload assembly.

Loading next visibility...
Identifier
28608, 1968-055M
Orbit
Active
Country
Flag of USUS
Related business
Manufacturer
Unknown
Mission
Spacecraft
Bus & Motor
Unknown
Mass
Unknown
Launch date (UTC)
1968-07-04 (58 years ago)
Launch vehicle
Unknown
Launch site
Air Force Western Test Range (AFWTR)
Object type
Payload
Rocket body
Debris
Shape & HBR
DISK + CABLE, 1.1 m
Radar Cross Section
Medium (>0.1 m² and <1 m²)

Expand to show TLE details & history
Last TLE update: 5 days ago

TLE from 5 days ago
0 EXPLORER 38 DEB
1 28608U 68055M   26251.92881678 -.00000010  00000-0  00000+0 0  9994
2 28608 120.8286 205.1765 0020181 303.4041 247.8323  6.42255397302058
Epoch: 2026-09-08T22:17Z
TLE epoch observation values (Epoch: 2026-09-08T22:17:29.769Z)
Latitude
-9.53253°
Longitude
57.08143°
Altitude
5,859.247 km
Speed
5.705 km/s
True Right ascension
01h 17m 46s
True Declination
-9° 29' 60"
Sunlit
Object was in daylight at epoch
Visualization orbit readout
Latitude
Unknown
Longitude
Unknown
Altitude
Unknown
Speed
Unknown
Apparent Right ascension
Unknown
Apparent Declination
Unknown
Sunlit
N/A
Visualization observer readout
Local Sidereal Time
15:06:31
Azimuth
Unknown
Elevation
Unknown
Doppler factor
Unknown
Orbital elements
Apogee altitude
5,871.567 km
Perigee altitude
5,822.224 km
Semi-major axis
12,225.033 km
Eccentricity
0.00202
Inclination
120.8286°
RAAN
205.1765°
Arg. of periapsis
303.4041°
True anomaly
247.61834°
Mean anomaly
247.8323°
Eccentric anomaly
247.7253°
Mean motion
1.60571 °/min
Orbital period
224.2 mins
BSTAR
0
Loading maneuver chart data...
Computing Atmospheric mass density...
Loading historical data...
Loading historical data...
Loading historical data...
Loading historical data...
Loading historical data...
Loading historical data...
Loading historical data...

Documentation

Showing up to 5 results
|